Skip Page Navigation
NASA JPL Caltech
NASA Logo - Jet Propulsion Laboratory + View the NASA Portal
+ Center for Near-Earth Object Studies
JPL Home Earth Solar System Stars & Galaxies Technology
JPL Solar System Dynamics
BODIES ORBITS EPHEMERIDES TOOLS PHYSICAL DATA DISCOVERY FAQ SITE MAP
JPL Small-Body Database Browser
Search: [ help ]  
(2016 FB4)
Classification: Apollo [NEO]          SPK-ID: 3748280
Ephemeris | Orbit Diagram | Orbital Elements | Mission Design | Physical Parameters | Close-Approach Data ]

[ show orbit diagram ]
Orbital Elements at Epoch 2459200.5 (2020-Dec-17.0) TDB
Reference: JPL 6 (heliocentric ecliptic J2000)
 Element Value Uncertainty (1-sigma)   Units 
e .3557076939428886 0.00013233  
a 1.151662138956692 0.00033156 au
q .7420070553070728 6.1426e-05 au
i 32.95260423470275 0.027519 deg
node 355.4711563756235 0.00052016 deg
peri 315.3913680390631 0.022707 deg
M 205.71290134495 0.54868 deg
tp 2459393.969795568219
(2021-Jun-28.46979557)
0.77157 TDB
period 451.4254724581877
1.24
0.19495
0.0005337
d
yr
n .7974738289349504 0.00034439 deg/d
Q 1.561317222606312 0.0004495 au
  Orbit Determination Parameters
   # obs. used (total)      39  
   data-arc span      24 days  
   first obs. used      2016-03-07  
   last obs. used      2016-03-31  
   planetary ephem.      DE441  
   SB-pert. ephem.      SB441-N16  
   condition code      7  
   norm. resid. RMS      .49624  
   source      ORB  
   producer      Otto Matic  
   solution date      2021-Apr-15 16:46:25  

Additional Information
 Earth MOID = .189471 au 
 Jupiter MOID = 3.9107 au 
 T_jup = 5.256 
[ show covariance matrix ]

Ephemeris | Orbit Diagram | Orbital Elements | Mission Design | Physical Parameters | Close-Approach Data ]

Physical Parameter Table
Parameter Symbol Value Units Sigma Reference Notes
absolute magnitude H 22.0   n/a E2016F78  

[ show close-approach data ]
Ephemeris | Orbit Diagram | Orbital Elements | Mission Design | Physical Parameters | Close-Approach Data ]
ABOUT SSD CREDITS/AWARDS PRIVACY/COPYRIGHT GLOSSARY LINKS
FirstGov 2021-Apr-18 05:20 UT
(server date/time)  
NASA Home Page
Site Manager:   Ryan S. Park
Webmaster  Alan B. Chamberlin